Tracadie, Nova Scotia

10:43 AM ADT on July 21, 2017 (GMT -0300)
Tracadie

Weather History for CXTD - December, 2012

Change the Weather History Date:

Saturday, December 22, 2012

  Actual Average Record
Temperature  
Mean Temperature 44 °F -  
Max Temperature 52 °F - - ()
Min Temperature 35 °F - - ()
Degree Days  
Heating Degree Days 22    
Moisture  
Dew Point 45 °F    
Average Humidity 93    
Maximum Humidity 96    
Minimum Humidity 87    
Precipitation  
Precipitation 1.18 in - - ()
Sea Level Pressure  
Sea Level Pressure 29.49 in    
Wind  
Wind Speed 13 mph ()    
Max Wind Speed 23 mph    
Max Gust Speed 44 mph    
T = Trace of Precipitation, MM = Missing Value Source: Averaged Metar Reports

Daily Weather History Graph

Daily Weather History Graph

Search for Another Location

Airport or City:

Trip Planner

Search our weather history database for the weather conditions in past years. The results will help you decide how hot, cold, wet, or windy it might be!

Date:

Astronomy

Dec. 22, 2012 Rise Set
Actual Time 7:44 AM AST 4:26 PM AST
Civil Twilight 7:10 AM AST 5:00 PM AST
Nautical Twilight 6:32 AM AST 5:38 PM AST
Astronomical Twilight 5:56 AM AST 6:14 PM AST
Moon 12:50 PM AST (12/22) 2:15 AM AST (12/22)
Length of Visible Light 9h 50m
Length of Day
8h 41m
Waxing Gibbous, 73% of the Moon is Illuminated
Dec 22
Waxing Gibbous
Dec 28
Full
Jan 4
Last Quarter
Jan 11
New
Jan 18
First Quarter

Hourly Weather History & Observations

Time (AST) Temp. Windchill Dew Point Humidity Pressure Visibility Wind Dir Wind Speed Gust Speed Precip Events Conditions
12:00 AM 38.3 °F 30.1 °F 34.9 °F 87% 29.83 in - ESE 13.8 mph 24.2 mph N/A   Unknown
1:00 AM 39.4 °F 31.4 °F 36.1 °F 88% 29.78 in - ESE 13.8 mph 24.2 mph N/A   Unknown
2:00 AM 40 °F - 38 °F 88% 29.73 in - ESE 15.0 mph - -  
2:00 AM 40.3 °F 32.2 °F 37.8 °F 91% 29.73 in - ESE 15.0 mph 26.5 mph N/A   Unknown
3:00 AM 41.5 °F 34.2 °F 39.7 °F 93% 29.71 in - ESE 13.8 mph 21.9 mph 0.02 in   Unknown
4:00 AM 42.8 °F 35.1 °F 41.4 °F 95% 29.66 in - ESE 16.1 mph 27.6 mph 0.02 in   Unknown
5:00 AM 44.1 °F 37.1 °F 42.6 °F 95% 29.61 in - ESE 15.0 mph 28.8 mph 0.04 in   Unknown
6:00 AM 45.0 °F 38.2 °F 43.5 °F 95% 29.57 in - ESE 15.0 mph 25.3 mph 0.14 in   Unknown
7:00 AM 45.9 °F 38.5 °F 44.6 °F 95% 29.53 in - ESE 18.4 mph 32.2 mph 0.20 in   Unknown
8:00 AM 48 °F - 47 °F 95% 29.49 in - ESE 19.6 mph - -  
8:00 AM 48.0 °F - 46.9 °F 96% 29.49 in - ESE 19.6 mph 32.2 mph 0.19 in   Unknown
9:00 AM 50.0 °F - 48.7 °F 95% 29.46 in - SE 23.0 mph 42.6 mph 0.22 in   Unknown
10:00 AM 50.2 °F - 49.1 °F 96% 29.44 in - SE 17.3 mph 28.8 mph 0.15 in   Unknown
11:00 AM 50.9 °F - 49.6 °F 95% 29.37 in - SE 19.6 mph 36.8 mph 0.35 in   Unknown
12:00 PM 52.0 °F - 50.7 °F 95% 29.30 in - SE 23.0 mph 43.7 mph 0.21 in   Unknown
1:00 PM 52.2 °F - 51.1 °F 96% 29.31 in - South 18.4 mph 32.2 mph 0.07 in   Unknown
2:00 PM 51 °F - 49 °F 92% 29.33 in - South 12.7 mph - -  
2:00 PM 50.5 °F - 49.3 °F 95% 29.33 in - South 12.7 mph 21.9 mph 0.17 in   Unknown
3:00 PM 50.0 °F - 48.7 °F 95% 29.35 in - SW 11.5 mph - 0.05 in   Unknown
4:00 PM 48.0 °F - 46.8 °F 95% 29.37 in - South 6.9 mph - 0.03 in   Unknown
5:00 PM 47.3 °F - 46.0 °F 95% 29.37 in - South 8.1 mph - N/A   Unknown
6:00 PM 46.6 °F - 45.5 °F 96% 29.39 in - SSW 6.9 mph - N/A   Unknown
8:00 PM 45 °F - 44 °F 92% 29.43 in - SSW 6.9 mph - -  
8:00 PM 45.3 °F 41.6 °F 43.5 °F 93% 29.43 in - SSW 6.9 mph - N/A   Unknown
9:00 PM 45.9 °F 42.3 °F 44.1 °F 93% 29.44 in - South 6.9 mph - N/A   Unknown
10:00 PM 45.3 °F 41.6 °F 42.6 °F 90% 29.44 in - South 6.9 mph - N/A   Unknown
11:00 PM 44.8 °F 43.3 °F 42.4 °F 91% 29.44 in - South 3.5 mph - N/A   Unknown